[[{"header":{"parameterUnit":"m.s-1","parameterCategory":1,"la1":30.2991,"la2":30.254,"lo1":-89.0895,"lo2":-89.0444,"dy":0.0017,"dx":0.0017,"nx":28,"ny":28,"refTime":"2023-11-12T03:00:00:Z","depth":0,"parameterNumber":2,"parameterNumberName":"U-component_of_WINDS"},"data":[0,0,0,0,0,0,0,0,0,0,0,0,0,0,0,0,0,0,0,0,0,0,0,0,0,0,0,0,0,0,0,0,0,0,0,0,0,0,0,0,0,0,0,0,0,0,0,0,0,0,0,0,0,0,0,0,0,0,-1.4236,-1.4237,0,-1.4348,-1.435,-1.4351,-1.4351,-1.435,-1.4349,-1.4347,-1.4465,-1.4469,-1.4473,0,0,0,0,0,0,0,0,0,0,0,0,0,-1.4023,-1.4027,-1.4235,-1.4237,-1.4238,-1.4348,-1.435,-1.4351,-1.4352,-1.435,-1.4348,-1.4347,-1.4463,-1.4468,-1.4474,0,0,0,0,0,0,0,0,0,0,0,0,0,-1.4123,-1.4028,-1.4235,-1.4252,-1.4254,-1.4348,-1.435,-1.4352,-1.4352,-1.435,-1.4348,-1.4346,-1.4461,-1.4468,-1.4474,-1.4559,0,0,-1.4495,-1.4498,0,0,0,0,0,0,0,0,-1.4118,-1.4131,-1.4248,-1.4251,-1.4254,-1.4334,-1.4318,-1.4421,-1.4353,-1.4315,-1.4347,-1.4345,-1.4423,-1.4433,-1.4459,-1.4565,-1.457,-1.4496,-1.45,-1.4503,-1.4504,0,0,0,0,0,0,0,-1.4111,-1.4126,-1.428,-1.425,-1.4253,-1.4254,-1.4266,-1.4337,-1.438,-1.4318,-1.4318,-1.4332,-1.4424,-1.4452,-1.4461,-1.4572,-1.4495,-1.4501,-1.4505,-1.4508,-1.4755,-1.4757,0,0,0,0,0,0,-1.41,-1.4121,-1.4277,-1.4284,-1.4179,-1.426,-1.4273,-1.431,-1.4379,-1.4387,-1.4333,-1.4331,-1.4442,-1.4453,-1.4465,-1.4571,-1.4502,-1.4509,-1.4513,-1.4752,-1.4755,-1.4758,0,0,0,0,0,0,-1.4096,-1.4114,-1.4272,-1.4202,-1.4222,-1.4266,-1.4307,-1.4314,-1.4342,-1.4391,-1.4398,-1.4354,-1.444,-1.4456,-1.4536,-1.4575,-1.4512,-1.4518,-1.4749,-1.4753,-1.4757,-1.4781,0,0,0,0,0,0,-1.4089,-1.4112,-1.4145,-1.4203,-1.4226,-1.434,-1.431,-1.4317,-1.4353,-1.4351,-1.4412,-1.442,-1.444,-1.4526,-1.4543,-1.4583,-1.4523,-1.4746,-1.4751,-1.4756,-1.4777,-1.4785,-1.4792,0,0,0,0,0,-1.4082,-1.4147,-1.4146,-1.4165,-1.4267,-1.4343,-1.4356,-1.4377,-1.4356,-1.4389,-1.4421,-1.4418,-1.4567,-1.4534,-1.4553,-1.4596,-1.4744,-1.475,-1.4755,-1.4774,-1.4783,-1.4792,0,0,0,0,0,0,-1.4093,-1.4155,-1.4155,-1.4241,-1.4286,-1.4342,-1.4385,-1.4387,-1.4439,-1.4436,-1.446,-1.4474,-1.4554,-1.4583,-1.4545,-1.4682,-1.4653,-1.4663,-1.4661,-1.4671,-1.4678,-1.467,-1.4529,0,0,0,0,0,-1.4105,-1.416,-1.4212,-1.4283,-1.4306,-1.4341,-1.4375,-1.4387,-1.4436,-1.4455,-1.4492,-1.454,-1.4598,-1.4636,-1.4691,-1.4781,-1.4795,-1.4819,-1.4827,-1.4833,-1.4841,-1.4892,-1.4904,-1.4777,-1.4777,-1.4777,0,0,-1.4131,-1.4172,-1.4206,-1.4286,-1.4323,-1.4381,-1.4358,-1.4419,-1.4463,-1.4465,-1.4543,-1.4572,-1.4627,-1.4712,-1.4752,-1.4739,-1.4879,-1.484,-1.4844,-1.485,-1.4899,-1.4911,-1.4922,-1.4781,-1.478,-1.4779,0,0,-1.4209,-1.4245,-1.4308,-1.4346,-1.4401,-1.4425,-1.444,-1.4496,-1.4515,-1.4594,-1.4597,-1.4649,-1.4748,-1.4787,-1.482,-1.4913,-1.4913,-1.493,-1.497,-1.5019,-1.5029,-1.5038,-1.5073,-1.5085,-1.4938,-1.4938,-1.4938,0,-1.4235,-1.4321,-1.4341,-1.4403,-1.4439,-1.4443,-1.4508,-1.4543,-1.4614,-1.464,-1.4623,-1.4748,-1.4785,-1.488,-1.4903,-1.4929,-1.4948,-1.4924,-1.5026,-1.5035,-1.5044,-1.5077,-1.509,-1.494,-1.494,-1.494,-1.494,0,-1.4351,-1.4411,-1.4456,-1.4524,-1.4565,-1.4628,-1.4658,-1.4697,-1.4706,-1.4731,-1.4812,-1.4856,-1.4922,-1.4945,-1.4954,-1.5042,-1.5032,-1.5021,-1.4993,-1.5058,-1.509,-1.5102,-1.4943,-1.4942,-1.4942,-1.4941,0,0,-1.4439,-1.4518,-1.4534,-1.4566,-1.4628,-1.4675,-1.4738,-1.4802,-1.4836,-1.4884,-1.494,-1.5023,-1.5013,-1.505,-1.5064,-1.5107,-1.5179,-1.509,-1.5092,-1.5107,-1.5281,-1.529,-1.5304,-1.5179,-1.5181,-1.5183,-1.5276,0,-1.4525,-1.4638,-1.4658,-1.4757,-1.4813,-1.4817,-1.4873,-1.4918,-1.4943,-1.4995,-1.5023,-1.5082,-1.5064,-1.5087,-1.5129,-1.5161,-1.5215,-1.5154,-1.5232,-1.5234,-1.5219,-1.532,-1.533,-1.5416,-1.5289,-1.5291,-1.5292,0,-1.464,-1.4691,-1.4796,-1.4851,-1.4876,-1.4925,-1.4986,-1.5035,-1.5086,-1.5101,-1.5143,-1.5151,-1.5219,-1.5186,-1.528,-1.5239,-1.5272,-1.5292,-1.5296,-1.5305,-1.5268,-1.5334,-1.5444,-1.5457,-1.5312,-1.531,-1.5309,0,-1.4696,-1.4791,-1.4867,-1.4893,-1.4959,-1.4994,-1.5023,-1.5072,-1.5109,-1.5162,-1.5186,-1.5246,-1.5279,-1.5326,-1.5351,-1.5324,-1.5444,-1.5413,-1.546,-1.5459,-1.5486,-1.5484,-1.5604,-1.5504,-1.5504,-1.5504,-1.5503,0,-1.479,-1.4854,-1.4893,-1.494,-1.5012,-1.5034,-1.5106,-1.5134,-1.5177,-1.523,-1.5237,-1.5287,-1.5316,-1.537,-1.539,-1.5465,-1.548,-1.5495,-1.55,-1.5496,-1.5494,-1.5519,-1.5514,-1.5507,-1.5506,-1.5506,-1.5505,0,-1.4865,-1.4893,-1.4976,-1.5031,-1.5047,-1.5098,-1.5146,-1.5192,-1.5216,-1.5283,-1.53,-1.534,-1.5404,-1.5433,-1.5512,-1.5525,-1.5612,-1.5612,-1.5595,-1.5597,-1.5643,-1.5639,-1.5784,-1.5805,-1.569,-1.5691,-1.5692,0,-1.4924,-1.4974,-1.5034,-1.507,-1.51,-1.5157,-1.5195,-1.5219,-1.5258,-1.532,-1.5359,-1.5423,-1.5475,-1.5578,-1.5614,-1.5675,-1.5677,-1.5724,-1.5687,-1.5681,-1.568,-1.5678,-1.5683,-1.5731,-1.5733,-1.5733,-1.5734,0,-1.5026,-1.5038,-1.5092,-1.5151,-1.5196,-1.5244,-1.5291,-1.532,-1.5351,-1.5395,-1.5461,-1.5502,-1.5582,-1.5647,-1.571,-1.5741,-1.5744,-1.5745,-1.576,-1.5757,-1.5745,-1.5754,-1.5615,-1.5742,-1.5742,-1.5741,-1.5741,-1.574,-1.5096,-1.5141,-1.5191,-1.5251,-1.5289,-1.5333,-1.5379,-1.5409,-1.5464,-1.5532,-1.5542,-1.5612,-1.5663,-1.5748,-1.5781,-1.5837,-1.5826,-1.5846,-1.5852,-1.5857,-1.586,-1.5735,-1.5848,-1.5848,-1.5848,-1.5848,-1.5847,0,-1.52,-1.5232,-1.5287,-1.5353,-1.5401,-1.5398,-1.545,-1.549,-1.5552,-1.5598,-1.565,-1.5725,-1.5788,-1.5829,-1.5892,-1.5929,-1.5932,-1.5945,-1.5943,-1.5951,-1.5866,-1.5848,-1.5942,-1.5942,-1.5942,-1.5942,-1.5942,-1.5942,-1.526,-1.5336,-1.5354,-1.5449,-1.548,-1.5549,-1.5579,-1.562,-1.5657,-1.5741,-1.5793,-1.5819,-1.5864,-1.593,-1.5988,-1.5998,-1.6022,-1.6036,-1.6046,-1.5966,-1.5957,-1.5947,-1.5931,-1.604,-1.6041,-1.6127,-1.6128,-1.6128]},{"header":{"parameterUnit":"m.s-1","parameterCategory":1,"la1":30.2991,"la2":30.254,"lo1":-89.0895,"lo2":-89.0444,"dy":0.0017,"dx":0.0017,"nx":28,"ny":28,"refTime":"2023-11-12T03:00:00:Z","depth":0,"parameterNumber":3,"parameterNumberName":"V-component_of_WINDS"},"data":[0,0,0,0,0,0,0,0,0,0,0,0,0,0,0,0,0,0,0,0,0,0,0,0,0,0,0,0,0,0,0,0,0,0,0,0,0,0,0,0,0,0,0,0,0,0,0,0,0,0,0,0,0,0,0,0,0,0,-4.1141,-4.1141,0,-4.116,-4.1161,-4.1161,-4.1106,-4.1104,-4.1103,-4.1101,-4.1119,-4.1121,-4.1123,0,0,0,0,0,0,0,0,0,0,0,0,0,-4.1052,-4.1054,-4.1141,-4.1141,-4.1141,-4.116,-4.1161,-4.1161,-4.1106,-4.1104,-4.1102,-4.11,-4.1118,-4.112,-4.1123,0,0,0,0,0,0,0,0,0,0,0,0,0,-4.1083,-4.1055,-4.1141,-4.1116,-4.1114,-4.116,-4.1161,-4.1161,-4.1107,-4.1104,-4.1102,-4.1099,-4.1117,-4.112,-4.1123,-4.1193,0,0,-4.1133,-4.1134,0,0,0,0,0,0,0,0,-4.1081,-4.1086,-4.112,-4.1118,-4.1116,-4.1128,-4.1136,-4.1172,-4.1107,-4.1109,-4.1101,-4.1098,-4.1124,-4.1126,-4.1135,-4.1194,-4.1195,-4.1133,-4.1135,-4.1136,-4.1137,0,0,0,0,0,0,0,-4.1079,-4.1085,-4.1148,-4.112,-4.1118,-4.1103,-4.1105,-4.1142,-4.113,-4.1109,-4.1105,-4.1108,-4.1122,-4.1132,-4.1135,-4.1195,-4.1133,-4.1135,-4.1137,-4.1139,-4.1311,-4.1314,0,0,0,0,0,0,-4.1081,-4.1084,-4.1148,-4.1149,-4.1092,-4.1107,-4.1109,-4.1127,-4.113,-4.1128,-4.1111,-4.1106,-4.1128,-4.1132,-4.1136,-4.1217,-4.1136,-4.1139,-4.1141,-4.1308,-4.1312,-4.1315,0,0,0,0,0,0,-4.1079,-4.1087,-4.1147,-4.1115,-4.1122,-4.1111,-4.1132,-4.1128,-4.1139,-4.1131,-4.1128,-4.1124,-4.1127,-4.1131,-4.1179,-4.1217,-4.114,-4.1143,-4.1305,-4.1309,-4.1313,-4.1382,0,0,0,0,0,0,-4.1077,-4.1087,-4.1114,-4.1116,-4.1124,-4.1191,-4.1134,-4.1131,-4.1145,-4.1138,-4.1143,-4.1141,-4.1125,-4.1175,-4.1182,-4.122,-4.1145,-4.1302,-4.1307,-4.1312,-4.1376,-4.1388,-4.1398,0,0,0,0,0,-4.1074,-4.1132,-4.1116,-4.1124,-4.1158,-4.1194,-4.1198,-4.1179,-4.1148,-4.1175,-4.117,-4.1141,-4.1212,-4.118,-4.1188,-4.1228,-4.1299,-4.1306,-4.1311,-4.1371,-4.1386,-4.1398,0,0,0,0,0,0,-4.1133,-4.1132,-4.1114,-4.1175,-4.1185,-4.1184,-4.1217,-4.1195,-4.1213,-4.1207,-4.1182,-4.1183,-4.1236,-4.1236,-4.1201,-4.1295,-4.125,-4.1258,-4.1293,-4.1306,-4.1317,-4.1316,-4.1148,0,0,0,0,0,-4.1153,-4.1184,-4.118,-4.1234,-4.1241,-4.1228,-4.1243,-4.1228,-4.1237,-4.1241,-4.1239,-4.1249,-4.1273,-4.129,-4.1312,-4.1376,-4.1376,-4.1407,-4.1418,-4.1427,-4.1434,-4.1467,-4.1481,-4.1335,-4.1335,-4.1335,0,0,-4.1195,-4.1198,-4.1219,-4.1246,-4.1253,-4.1284,-4.1232,-4.1267,-4.129,-4.1246,-4.1291,-4.1291,-4.1299,-4.1356,-4.138,-4.1358,-4.1474,-4.1434,-4.1442,-4.1444,-4.1475,-4.1489,-4.1501,-4.1339,-4.1338,-4.1338,0,0,-4.1288,-4.1294,-4.1339,-4.1346,-4.1357,-4.1348,-4.1359,-4.1362,-4.136,-4.1406,-4.1374,-4.1399,-4.1442,-4.1449,-4.1459,-4.1554,-4.1528,-4.1562,-4.1618,-4.1652,-4.1663,-4.1673,-4.1707,-4.172,-4.1569,-4.1569,-4.1569,0,-4.1339,-4.1385,-4.1365,-4.1403,-4.1415,-4.1378,-4.1423,-4.1431,-4.1448,-4.1457,-4.1431,-4.1484,-4.1487,-4.1545,-4.1568,-4.1577,-4.1588,-4.1561,-4.1663,-4.1673,-4.1682,-4.1714,-4.1727,-4.1573,-4.1573,-4.1572,-4.1572,0,-4.1447,-4.1479,-4.1515,-4.1533,-4.1549,-4.1591,-4.1576,-4.1595,-4.1578,-4.1572,-4.1619,-4.1621,-4.1643,-4.1655,-4.1639,-4.1711,-4.1696,-4.1668,-4.1622,-4.1701,-4.173,-4.1742,-4.1579,-4.1578,-4.1576,-4.1575,0,0,-4.1577,-4.1584,-4.1597,-4.1605,-4.1614,-4.1638,-4.1677,-4.1699,-4.1716,-4.1728,-4.176,-4.1797,-4.1771,-4.1781,-4.1765,-4.1795,-4.187,-4.1762,-4.1762,-4.1782,-4.1949,-4.197,-4.1985,-4.1853,-4.1855,-4.1857,-4.1948,0,-4.1668,-4.1737,-4.172,-4.1787,-4.1817,-4.1782,-4.1816,-4.1824,-4.1819,-4.1843,-4.1837,-4.1864,-4.1827,-4.1833,-4.186,-4.1855,-4.1903,-4.1848,-4.1881,-4.1883,-4.1881,-4.2,-4.2024,-4.211,-4.1959,-4.1961,-4.1963,0,-4.1784,-4.1802,-4.1873,-4.1877,-4.1888,-4.192,-4.1938,-4.1962,-4.197,-4.1964,-4.1977,-4.1955,-4.1993,-4.1947,-4.1998,-4.1961,-4.1974,-4.1973,-4.1976,-4.1978,-4.1928,-4.2006,-4.2136,-4.215,-4.1981,-4.1979,-4.1978,0,-4.1872,-4.1914,-4.1962,-4.197,-4.1975,-4.1998,-4.2001,-4.2007,-4.2021,-4.2037,-4.2046,-4.2066,-4.2077,-4.2093,-4.2077,-4.2045,-4.2131,-4.2084,-4.2127,-4.2127,-4.2146,-4.2145,-4.2281,-4.2155,-4.2154,-4.2154,-4.2154,0,-4.1976,-4.2021,-4.2002,-4.2031,-4.208,-4.2059,-4.2108,-4.2106,-4.2112,-4.214,-4.211,-4.2137,-4.2114,-4.2138,-4.2126,-4.217,-4.2175,-4.2171,-4.2168,-4.2174,-4.2175,-4.2182,-4.2176,-4.2157,-4.2157,-4.2156,-4.2155,0,-4.2083,-4.2072,-4.2122,-4.2123,-4.2124,-4.216,-4.2161,-4.2187,-4.218,-4.2216,-4.2223,-4.2212,-4.2239,-4.2225,-4.2252,-4.2244,-4.2301,-4.2289,-4.2299,-4.2296,-4.234,-4.2336,-4.2485,-4.2503,-4.2365,-4.2366,-4.2367,0,-4.215,-4.2184,-4.2189,-4.2206,-4.2211,-4.2239,-4.2254,-4.2235,-4.2251,-4.2263,-4.2288,-4.2313,-4.2332,-4.2376,-4.237,-4.2391,-4.2379,-4.243,-4.2382,-4.2388,-4.238,-4.2379,-4.2382,-4.244,-4.2441,-4.2443,-4.2444,0,-4.227,-4.2263,-4.2286,-4.2308,-4.2327,-4.2342,-4.2355,-4.237,-4.2351,-4.2371,-4.2399,-4.2414,-4.2442,-4.2467,-4.2485,-4.2487,-4.2462,-4.2459,-4.247,-4.2477,-4.2481,-4.248,-4.2325,-4.2456,-4.2454,-4.2454,-4.2453,-4.2452,-4.2359,-4.2388,-4.2396,-4.2422,-4.243,-4.2443,-4.2468,-4.2465,-4.2488,-4.251,-4.2497,-4.253,-4.2537,-4.2558,-4.2564,-4.2588,-4.2568,-4.2584,-4.2588,-4.2592,-4.2598,-4.2478,-4.2591,-4.2591,-4.2591,-4.259,-4.259,0,-4.2478,-4.2482,-4.2506,-4.2526,-4.2547,-4.2522,-4.2535,-4.2554,-4.2583,-4.2592,-4.2612,-4.2643,-4.2667,-4.2663,-4.2684,-4.2705,-4.2694,-4.2711,-4.2709,-4.271,-4.2615,-4.2604,-4.272,-4.272,-4.2719,-4.2719,-4.2719,-4.2719,-4.2542,-4.2589,-4.2583,-4.2633,-4.2635,-4.2668,-4.2677,-4.2689,-4.2696,-4.2733,-4.2753,-4.275,-4.2754,-4.2775,-4.2796,-4.2794,-4.2803,-4.2824,-4.2818,-4.273,-4.2717,-4.2705,-4.2694,-4.2827,-4.2827,-4.2911,-4.2912,-4.2913]}]]